RH
64 61 57 57 53 45 39 36 34 31 25 19 17 17 16 16 15 14 13 12 12 12 12 11 11 11 11 11 11 11 11 11 12 11 11 11 11 12 11 9 7 6 6 6 6 6 7 8 9 10 11 13 15 16 17 18 17 17 17 16 15 16 14 14 16 15 19 24 36 70 87 78 87 96 98 105 96 89 81 63 59 50 41 54 71 82 88 91
65 63 58 57 57 51 42 39 38 36 31 24 19 18 17 17 16 15 14 13 13 12 12 12 12 11 11 11 11 11 11 11 11 11 11 10 10 11 12 12 11 9 7 6 6 6 6 7 8 10 11 12 14 15 16 16 16 16 16 16 15 15 15 13 15 16 19 24 23 46 69 62 63 67 70 82 77 70 59 43 43 42 49 73 91 96 90 77
69 66 60 55 58 57 47 42 41 40 38 31 23 20 18 17 16 15 15 14 14 13 12 12 12 12 11 11 11 11 11 10 11 11 11 11 11 10 10 11 12 12 11 8 7 6 6 6 7 8 9 11 12 13 14 15 15 15 15 15 15 13 14 13 12 17 19 22 23 32 43 43 45 43 41 51 55 52 42 36 35 41 66 86 93 91 72 50
71 68 60 54 58 61 53 45 43 43 42 39 30 23 21 19 17 15 15 15 15 14 13 13 13 13 12 11 11 10 10 11 10 10 10 11 11 10 10 10 11 12 12 12 10 9 7 6 6 7 7 8 9 10 11 13 12 13 13 12 14 13 12 12 11 15 17 21 26 28 32 34 43 48 41 37 39 41 36 33 34 52 79 87 88 79 52 38
70 64 57 54 59 62 57 48 44 44 45 44 37 27 23 21 19 16 15 14 15 15 14 13 13 13 13 12 12 10 10 11 10 10 10 11 11 11 11 10 10 10 11 12 12 12 11 9 7 7 6 7 7 8 8 9 9 9 10 10 10 11 10 11 11 12 15 23 26 29 37 37 43 47 35 32 35 33 33 36 47 72 87 85 78 56 35 35
66 60 56 58 62 62 57 51 47 47 47 47 42 32 26 24 22 19 16 14 14 15 15 14 13 13 13 12 12 11 10 10 10 10 10 10 10 11 11 10 10 10 10 10 11 12 12 12 11 9 8 7 6 7 7 6 7 7 7 8 8 8 9 9 10 11 13 19 21 26 33 29 33 32 23 31 32 29 42 47 49 58 59 56 52 40 39 41
62 61 62 64 63 60 55 52 50 49 49 47 43 35 28 25 24 22 19 17 14 14 15 15 14 13 13 13 12 11 11 10 10 10 10 10 10 10 10 10 10 10 10 10 10 10 11 11 11 12 11 9 9 7 7 6 6 7 7 7 7 7 8 8 9 9 10 13 12 17 20 16 21 20 18 28 27 38 54 40 28 31 34 39 40 40 45 49
66 66 66 64 61 57 54 51 48 46 44 40 37 32 28 26 24 24 23 20 17 15 14 14 14 14 13 13 13 12 11 11 10 10 10 10 10 10 10 10 10 10 10 10 10 10 10 10 10 11 11 11 11 10 9 8 7 7 7 7 7 7 7 7 8 8 9 10 10 11 11 13 17 14 18 27 33 54 52 25 17 25 34 40 38 39 45 50
62 60 57 55 52 49 45 41 38 36 34 32 30 29 27 26 25 24 24 23 21 18 15 14 13 14 13 13 12 12 12 11 10 10 10 10 10 10 10 10 10 10 10 10 10 10 10 10 10 10 11 11 11 11 10 10 10 9 9 8 8 8 7 7 7 8 8 8 10 12 12 13 12 13 21 30 46 62 42 17 16 24 36 38 38 44 44 36
41 39 38 36 35 33 31 30 30 29 30 29 29 28 27 27 26 25 25 24 24 22 19 16 14 13 13 13 12 12 11 11 10 10 10 9 10 10 10 10 10 10 10 10 10 10 10 10 10 10 11 11 10 10 10 10 10 10 11 11 11 12 12 12 12 11 11 12 12 17 22 17 13 17 24 39 60 62 35 15 13 22 36 34 42 53 38 22
28 27 27 27 27 27 27 27 28 28 28 28 28 27 27 27 26 26 25 25 24 23 22 18 15 13 12 12 11 11 11 11 10 10 10 10 10 10 10 9 10 11 10 11 10 10 10 10 11 11 11 11 11 11 10 10 10 10 10 10 12 13 14 15 16 18 18 21 20 24 32 27 22 21 29 53 67 52 28 16 11 22 36 38 49 51 34 24
21 22 22 23 23 24 24 25 25 26 26 26 27 26 26 26 26 25 24 24 23 23 21 18 16 13 13 12 11 11 11 11 10 10 10 10 10 9 10 9 9 10 10 11 10 10 10 10 11 11 11 11 11 11 10 11 11 11 11 10 11 11 12 12 14 19 20 22 23 31 46 47 39 29 39 62 58 38 27 17 11 21 35 41 40 31 27 29
16 16 16 16 17 17 18 18 19 20 21 21 22 22 23 23 23 23 22 22 21 20 19 16 15 13 13 12 10 11 12 11 10 10 10 9 10 9 9 10 9 10 10 11 11 10 10 11 11 11 11 11 12 11 10 11 11 12 12 11 11 10 10 10 12 15 15 16 15 24 47 61 58 49 51 52 35 29 28 17 12 19 28 32 24 16 26 32
18 16 16 15 15 15 14 15 14 14 15 15 16 16 17 18 18 18 18 18 17 16 15 14 14 13 14 12 10 12 12 12 10 9 9 9 10 10 9 10 9 9 9 10 10 11 11 11 12 11 11 12 12 12 11 11 11 12 12 11 11 11 10 9 10 11 10 12 10 13 27 41 46 45 39 26 20 27 26 17 13 13 16 17 15 18 29 34
24 22 21 20 19 18 16 16 15 14 13 13 13 12 13 13 13 14 13 14 13 13 13 13 13 13 14 12 9 12 13 12 11 9 9 10 12 12 10 9 9 9 9 10 10 10 11 11 12 12 12 12 12 12 12 12 12 12 12 12 11 11 11 10 10 10 9 10 10 10 13 16 19 22 19 14 19 21 20 20 13 8 10 9 12 18 29 43
31 29 27 26 25 24 22 21 19 18 17 15 14 13 13 13 12 12 12 12 12 12 13 12 13 13 14 13 10 12 14 14 11 10 11 11 12 12 10 9 10 9 9 9 10 9 10 11 12 12 12 12 12 13 12 13 13 13 13 12 11 11 11 11 10 10 10 9 9 10 11 12 12 15 16 17 17 14 17 21 11 9 10 10 16 21 38 57
33 32 31 30 30 29 27 26 25 23 22 20 18 17 16 15 14 14 13 12 12 12 13 13 13 13 15 14 11 12 14 15 13 12 13 11 11 12 12 11 10 10 9 9 9 10 10 11 12 12 12 13 13 13 13 14 14 13 12 12 11 11 11 12 11 11 10 10 10 10 11 12 13 14 15 15 14 11 16 17 11 12 14 17 26 27 41 56
27 28 29 30 30 30 29 28 28 27 26 24 23 21 19 18 18 17 16 14 13 13 13 13 13 15 17 15 13 13 14 16 15 14 15 13 12 12 13 13 11 10 10 10 10 10 10 11 11 12 13 14 15 14 14 14 13 11 11 11 11 11 11 12 11 11 11 11 10 10 11 12 13 14 14 13 13 12 13 13 11 13 18 30 34 24 27 37
19 20 21 23 25 26 27 28 28 29 28 27 26 25 23 22 22 22 22 19 17 15 14 14 14 16 21 21 16 13 14 16 17 17 17 15 13 13 13 13 12 11 11 11 11 11 11 11 11 13 14 15 14 14 14 13 11 11 11 11 11 11 12 12 12 11 11 12 11 11 11 11 13 14 13 12 11 12 12 14 15 13 22 37 35 21 16 22
16 16 16 16 17 18 20 21 23 25 26 26 26 26 25 25 25 25 26 26 23 20 18 17 17 20 26 27 21 15 15 17 18 18 19 18 16 15 14 13 13 13 13 14 13 12 11 11 13 15 15 14 13 13 13 13 12 12 12 11 12 12 12 12 12 12 11 12 11 11 12 11 12 14 14 12 11 12 11 16 21 18 27 40 32 19 13 15
15 15 15 15 15 14 15 15 15 17 19 21 22 23 24 25 26 26 27 28 27 24 23 23 21 25 32 31 23 17 16 19 20 19 19 19 18 16 16 15 14 14 16 16 13 12 11 12 16 17 15 13 13 13 13 13 12 13 13 12 13 13 13 12 13 13 12 12 11 11 12 11 12 13 13 13 11 12 12 15 22 22 28 36 28 18 13 12
13 13 13 14 14 14 14 14 13 13 14 14 15 16 18 19 21 23 24 26 26 24 25 26 25 29 36 33 24 19 18 20 24 23 20 19 19 18 19 18 16 16 17 15 13 12 13 16 19 17 15 13 13 13 13 13 12 13 13 13 14 14 14 13 13 14 13 13 12 11 12 11 11 13 13 13 13 15 17 14 16 18 21 27 25 20 15 10
14 14 13 13 13 12 13 13 13 13 13 13 13 13 13 14 15 17 19 21 22 22 22 24 26 28 33 34 26 20 21 24 25 25 21 19 19 19 20 19 19 18 16 14 14 14 17 21 19 15 14 13 13 13 13 13 12 13 14 14 15 14 14 14 14 15 15 14 12 11 11 10 11 12 13 14 14 15 16 14 13 14 16 22 23 20 17 12
15 15 15 15 14 13 13 13 12 12 13 13 13 13 13 13 13 13 15 16 18 18 18 19 22 24 27 31 28 23 26 28 27 28 26 23 23 20 19 20 20 19 17 15 15 15 19 21 18 14 14 14 13 13 13 14 14 14 14 15 15 15 14 14 14 14 15 14 12 11 11 11 11 13 14 16 16 15 15 13 14 14 14 17 17 17 18 14
15 15 15 15 15 15 14 14 14 13 12 12 12 12 13 13 13 13 14 15 16 16 16 15 15 18 21 25 26 24 27 29 29 31 30 29 28 25 22 22 21 20 19 17 16 16 20 21 18 16 17 16 14 15 15 15 15 14 15 16 17 16 15 15 14 14 14 14 13 12 12 12 12 12 13 15 16 16 16 15 15 15 14 14 13 16 18 14
17 16 15 15 15 15 14 14 15 14 14 13 12 11 11 12 12 13 14 15 16 15 15 15 14 14 16 19 21 21 23 26 28 29 29 29 30 29 26 23 23 23 22 19 17 17 19 19 18 17 18 17 16 15 16 16 16 16 17 19 18 16 15 15 14 13 13 14 15 13 12 13 12 12 13 14 16 16 16 16 16 16 15 14 14 15 15 14
18 17 16 15 15 15 14 14 13 14 14 14 14 13 12 11 10 11 12 14 14 14 14 15 16 16 15 16 17 18 19 22 24 25 26 28 29 29 28 26 26 27 25 21 16 18 22 20 18 18 19 19 18 18 19 18 19 20 20 19 17 16 15 15 14 13 13 15 15 13 12 12 12 13 14 14 15 17 17 18 17 17 16 15 15 15 15 16
19 18 17 15 15 15 14 14 13 13 13 12 13 13 13 13 12 11 11 12 12 13 13 13 15 16 16 16 17 17 17 18 21 22 22 24 25 27 28 27 28 29 29 24 20 26 29 23 19 19 19 20 21 22 21 20 21 23 20 17 16 16 15 15 13 13 13 13 13 12 11 12 14 16 16 15 15 17 19 19 18 18 17 16 16 15 15 15
18 18 17 16 15 15 14 14 13 12 12 11 11 11 12 12 13 13 12 12 10 11 12 12 13 14 15 16 17 17 16 16 19 19 18 19 20 22 23 25 27 29 30 27 26 31 31 24 20 18 18 21 23 22 19 19 23 24 20 18 17 16 16 15 13 13 12 12 13 13 12 13 17 18 17 16 17 18 20 21 20 19 18 18 17 16 16 15
18 18 18 18 17 16 15 14 14 13 11 11 10 10 10 10 11 12 13 13 12 11 11 11 12 12 13 14 15 16 16 16 18 18 17 17 18 18 19 22 23 25 27 27 28 30 29 25 21 18 18 22 24 21 19 20 24 24 20 19 18 17 16 15 14 13 12 12 13 15 16 15 19 21 18 18 20 20 21 21 20 20 19 18 18 16 16 15
18 19 19 20 19 18 17 16 15 14 13 11 10 9 9 9 10 10 11 12 12 13 13 12 11 11 11 12 13 14 15 16 18 18 17 16 17 17 16 17 18 20 23 24 25 27 27 26 23 21 23 24 24 22 22 23 24 24 21 20 19 18 17 15 14 13 12 13 15 19 23 20 19 22 21 19 20 21 22 21 20 19 18 18 18 17 16 16
18 18 18 18 18 17 17 17 15 15 14 13 11 10 9 9 9 9 9 10 11 12 13 14 14 13 11 10 11 13 14 14 16 17 17 16 17 18 17 16 16 17 19 22 24 24 25 24 24 25 26 27 27 26 25 25 25 24 24 23 21 19 18 16 15 14 14 17 20 25 29 25 22 23 23 21 20 20 20 20 19 18 18 17 17 17 16 16
18 18 17 16 15 15 14 15 14 14 13 12 12 11 10 9 9 8 8 8 9 10 11 12 14 14 13 10 9 10 12 13 14 16 17 17 17 19 20 20 18 16 18 22 24 24 25 26 26 25 26 27 28 29 29 28 27 27 26 25 23 22 20 20 20 20 20 23 27 30 30 27 25 23 22 20 19 18 16 17 18 18 18 17 16 17 16 15
19 18 16 14 13 12 11 11 11 11 10 10 10 10 10 10 9 9 8 7 7 8 9 10 12 13 14 12 11 10 10 12 13 14 15 16 17 19 21 22 21 19 18 19 20 20 22 25 26 27 26 27 27 28 30 31 30 29 28 28 26 25 24 25 27 26 25 29 31 30 27 25 26 26 21 18 18 16 13 14 17 18 18 18 17 16 16 15
17 16 13 11 10 8 8 8 7 7 7 7 8 7 8 8 8 8 8 7 7 7 7 8 10 11 12 12 13 12 11 11 11 13 14 15 15 17 19 21 22 21 18 17 16 16 18 21 25 26 26 27 29 30 30 30 30 30 29 28 27 26 26 25 26 25 25 27 28 25 23 23 25 26 21 15 15 14 12 12 15 18 17 17 17 16 15 15
13 11 10 9 8 7 6 6 6 6 6 6 6 5 5 6 6 6 6 6 7 6 6 7 8 10 10 11 12 13 13 13 12 11 12 14 14 15 17 19 20 18 16 15 17 18 18 22 27 25 23 25 27 30 31 30 30 30 29 29 29 29 27 26 27 27 25 25 26 24 23 22 24 24 20 15 15 14 13 15 16 17 17 16 17 15 15 15
9 9 8 8 8 7 6 6 6 5 5 5 5 5 4 4 4 4 4 5 5 5 5 6 7 8 9 10 11 12 13 14 13 12 11 12 13 14 14 16 17 17 16 17 19 20 19 23 26 24 22 23 24 27 30 30 29 30 29 30 32 30 28 28 28 27 25 23 26 26 25 23 23 23 21 18 17 16 16 17 17 17 17 16 16 15 14 15
9 8 8 7 7 6 6 5 5 5 4 4 4 4 4 4 4 3 3 4 4 4 4 4 6 7 8 9 10 10 12 13 14 14 13 11 12 13 13 14 15 15 16 18 21 21 20 22 24 22 21 23 23 24 25 26 27 30 32 32 32 30 28 28 28 28 27 25 28 30 27 23 23 24 24 21 20 19 18 18 18 17 16 16 15 15 14 14
9 8 7 7 6 6 5 5 5 4 4 4 3 3 3 2 3 3 3 3 3 3 3 3 4 5 6 7 8 9 11 13 13 14 14 12 12 12 12 13 14 14 15 16 20 21 21 23 25 25 26 26 25 21 19 21 24 26 28 29 30 30 30 30 30 29 29 28 31 32 26 23 25 26 24 22 21 19 18 19 18 17 16 16 15 15 15 14
8 7 6 6 6 6 5 4 4 4 3 3 3 3 2 2 2 2 2 2 3 2 2 3 3 4 5 5 7 8 10 12 12 12 13 13 13 13 12 12 13 13 14 15 17 19 20 24 27 29 30 30 28 23 22 26 29 27 25 24 26 29 30 29 28 27 26 27 29 28 24 26 29 27 24 22 22 20 19 19 18 17 16 15 15 15 15 14
8 6 5 7 7 6 6 5 4 3 3 3 3 3 2 2 2 1 2 2 2 2 2 2 3 3 3 4 5 7 8 10 11 11 11 12 13 14 13 12 12 13 14 14 15 16 17 21 27 30 29 28 27 28 34 41 42 37 33 32 32 35 37 35 30 29 30 30 30 27 26 29 29 26 24 24 23 21 20 18 17 17 16 15 15 15 15 14
9 6 6 8 10 9 8 7 4 3 3 3 3 3 2 2 2 1 2 1 1 2 1 1 2 3 3 3 4 5 6 8 9 10 10 11 12 14 14 13 13 13 13 13 14 15 16 18 25 30 30 27 27 32 41 45 44 43 40 40 42 43 44 41 37 36 36 36 36 33 31 32 31 28 27 26 25 23 20 18 17 17 16 15 14 15 15 13
13 10 7 8 10 9 8 7 5 3 3 3 3 3 2 2 2 2 2 1 1 1 1 1 2 2 2 3 3 4 5 6 8 9 9 10 10 12 14 15 14 13 12 13 13 14 16 17 22 28 30 30 30 36 42 40 36 40 39 37 41 43 43 42 40 38 37 36 35 33 32 33 33 32 30 28 26 23 21 18 17 16 15 15 14 14 14 13
18 15 11 10 10 9 7 7 6 4 3 3 3 3 3 2 2 2 2 2 1 1 1 1 1 1 2 2 3 3 3 4 7 8 8 9 9 10 13 15 16 15 13 12 13 14 15 17 19 23 27 30 32 35 41 38 31 32 34 33 37 42 43 41 38 35 33 32 30 27 28 31 31 32 31 28 26 23 21 19 17 17 15 14 14 13 14 13
20 19 16 13 11 10 9 7 6 5 3 3 3 2 2 2 2 2 2 2 2 1 1 1 1 1 1 2 2 3 3 3 5 6 7 7 8 9 11 14 16 17 14 12 12 13 15 16 17 19 22 26 30 31 35 35 32 31 31 30 34 39 41 38 35 33 31 30 29 26 27 29 29 31 30 28 25 23 21 19 17 16 15 14 14 13 13 13
20 20 20 18 13 10 8 7 5 4 4 3 3 3 3 2 2 2 2 2 2 2 2 1 1 2 1 2 2 2 3 3 3 5 6 7 7 8 10 12 15 18 16 12 12 13 14 15 17 18 19 21 25 28 29 30 30 31 32 31 32 34 36 35 32 31 32 32 30 29 30 30 29 30 30 27 25 23 21 20 17 16 15 14 13 13 13 13
21 20 19 19 16 11 8 6 4 3 3 3 3 3 3 3 2 3 2 2 2 2 2 2 2 2 2 1 2 2 2 3 3 4 5 6 7 7 9 11 13 17 17 14 13 14 14 15 16 17 17 18 20 24 27 27 26 29 31 32 32 33 33 32 28 28 32 33 31 30 31 30 29 28 28 27 26 23 22 20 17 16 16 14 13 12 12 12
24 21 16 15 14 11 8 6 3 3 3 3 3 3 2 3 2 2 2 2 2 2 2 2 2 2 2 1 2 2 2 2 3 3 4 5 6 7 8 10 12 15 17 16 15 15 15 15 16 16 17 18 20 22 24 25 26 28 30 29 29 30 31 30 27 27 29 30 31 31 31 31 30 27 26 27 27 25 24 21 18 17 16 14 13 12 12 13
27 23 18 14 12 9 7 5 3 3 3 3 3 2 2 3 2 2 2 2 2 2 2 2 2 2 2 2 2 2 1 2 2 3 4 4 6 7 8 9 11 13 15 17 17 16 16 15 15 17 18 19 21 21 22 23 25 29 31 28 26 27 28 30 30 28 28 30 32 32 31 32 30 25 24 26 27 27 25 21 19 18 17 14 13 13 13 13
30 25 20 15 12 8 6 5 4 4 3 3 3 2 2 2 2 2 2 2 2 2 2 2 2 2 2 2 2 2 2 2 2 3 4 4 5 7 7 8 10 12 14 16 18 18 17 16 17 19 20 21 21 21 21 22 23 27 31 31 28 26 27 31 33 32 30 32 35 35 32 31 30 25 23 24 27 28 25 23 21 19 17 15 13 13 13 12
33 28 22 17 12 9 6 5 4 4 3 3 3 3 2 2 2 2 2 2 2 2 2 2 2 2 2 2 2 2 2 2 2 2 3 4 4 5 6 8 8 11 13 15 18 20 18 18 19 20 21 22 21 21 22 22 22 26 30 32 31 29 29 31 32 34 35 35 37 37 34 32 30 27 23 23 26 27 24 23 21 18 17 15 13 13 13 12
35 31 25 18 13 8 6 5 4 3 3 3 2 3 2 2 2 2 2 2 2 2 2 2 2 2 2 2 2 2 2 2 2 2 3 4 4 4 5 7 8 11 13 14 18 20 19 20 22 22 23 22 21 22 22 21 22 25 29 32 32 30 30 32 33 36 39 37 35 37 37 34 32 29 26 23 25 27 25 24 22 19 17 16 14 14 14 13
Wind_Speed
42 41 40 40 40 39 38 37 37 37 37 37 36 36 36 35 34 32 29 27 25 24 23 21 20 20 18 18 18 18 17 16 15 14 13 12 12 13 15 19 23 27 32 35 38 40 41 43 43 44 45 45 45 44 44 43 42 41 41 40 38 37 36 35 34 33 32 31 30 29 29 28 25 23 21 23 30 33 33 35 37 38 37 35 34 33 32 33
45 44 43 43 42 41 41 40 39 39 39 39 39 39 38 38 37 34 32 30 28 27 25 24 23 22 22 21 20 20 20 20 19 17 16 15 13 13 14 15 18 21 26 30 34 37 39 41 43 44 45 46 46 46 45 45 44 44 43 43 41 40 39 37 37 36 35 34 33 33 32 32 33 32 31 34 38 38 38 39 39 38 34 33 33 33 34 35
47 47 46 45 45 44 43 43 42 42 41 41 41 41 41 40 39 37 34 32 30 29 28 27 26 25 24 24 23 23 22 22 22 21 20 18 16 16 16 15 16 18 20 24 28 32 35 38 41 43 44 46 46 47 47 46 46 45 45 45 44 43 42 40 39 38 37 37 36 36 36 36 37 37 38 39 39 38 39 39 38 36 32 33 35 36 35 32
49 49 48 48 47 46 46 45 45 44 44 44 44 44 43 43 42 40 38 34 32 32 31 29 28 28 27 27 26 26 25 24 25 25 23 21 20 19 18 17 17 17 18 19 22 25 29 33 37 39 42 44 45 46 47 47 46 46 46 46 46 45 44 43 41 40 38 38 38 38 37 38 37 36 37 38 36 35 36 35 35 35 34 36 36 34 32 29
52 51 51 50 49 49 48 48 48 47 47 46 46 46 46 46 45 43 41 38 35 33 33 32 31 30 30 29 29 29 28 27 28 27 25 25 24 23 22 21 20 19 19 18 18 20 23 26 30 34 37 40 41 43 44 45 45 46 46 46 46 45 44 44 43 41 39 38 39 38 36 36 36 34 34 34 33 32 32 32 32 33 34 34 33 31 29 26
54 53 52 52 51 51 51 51 51 50 50 49 48 48 48 48 47 46 44 41 38 36 35 35 34 32 32 32 31 31 30 29 31 28 27 29 28 27 26 24 23 22 21 19 19 19 19 21 23 27 31 34 36 38 39 40 41 41 43 43 44 44 44 43 43 42 40 39 39 39 36 36 36 35 34 32 30 29 28 29 31 31 31 30 29 26 24 22
55 55 54 54 54 54 54 53 53 53 52 52 51 50 50 49 49 48 47 45 42 40 38 37 36 35 35 34 34 34 32 32 33 30 30 31 31 31 29 28 26 25 24 22 22 21 20 20 20 21 24 27 29 32 34 35 36 37 38 39 40 41 41 41 41 40 39 39 39 39 38 38 38 36 34 31 28 26 26 28 28 27 26 25 23 20 19 18
57 57 57 57 57 57 57 56 56 55 55 54 53 52 51 51 51 50 49 47 45 43 41 40 39 38 37 37 37 36 33 35 35 33 34 34 33 34 33 32 31 29 27 25 25 24 24 23 21 20 21 20 22 26 28 30 32 33 33 35 36 37 37 37 37 37 37 37 37 37 38 38 36 35 33 29 26 24 25 26 23 21 20 19 18 17 16 16
59 60 60 59 59 59 59 58 58 57 56 55 54 53 53 52 52 52 51 49 48 46 44 43 42 41 40 40 40 37 35 37 36 35 37 36 35 36 36 35 34 32 31 29 28 27 27 25 23 22 21 19 21 23 24 25 26 26 28 30 31 32 33 34 34 33 34 35 35 34 35 36 35 34 31 27 24 23 23 22 18 17 16 15 15 15 15 16
61 61 61 61 61 60 60 59 59 58 57 57 56 55 54 53 53 53 52 51 50 48 47 46 44 44 43 43 42 39 37 40 39 37 39 38 37 38 38 38 37 36 35 33 32 31 30 27 25 24 22 23 24 24 24 22 22 22 24 24 24 26 27 27 28 29 30 31 31 30 30 32 32 31 29 27 24 23 22 18 16 15 14 14 14 14 15 16
60 61 61 61 61 61 60 60 60 59 59 58 57 56 56 55 55 54 53 53 52 50 49 48 47 46 45 46 45 40 39 43 41 39 40 41 40 40 40 40 39 39 38 37 36 34 32 30 28 27 26 27 26 26 26 23 21 22 23 22 22 23 23 23 23 24 25 25 26 25 25 27 29 30 28 27 25 24 21 17 15 14 13 13 13 13 14 15
61 61 61 62 62 62 62 61 61 60 60 60 59 58 58 57 56 56 55 54 54 52 51 50 49 48 48 49 47 41 42 45 44 42 42 42 42 42 42 42 41 41 41 40 39 37 35 33 32 31 30 30 28 29 28 25 23 23 23 23 23 23 24 23 22 22 22 21 22 21 21 23 26 28 28 27 26 23 19 16 15 14 13 13 14 14 14 14
62 62 62 63 63 63 63 63 63 62 62 62 61 61 60 59 58 58 57 56 55 54 52 51 51 50 50 53 49 43 44 47 47 46 44 42 43 44 44 44 43 43 43 43 42 41 38 36 35 35 33 31 31 32 31 27 25 25 25 25 25 25 25 24 23 23 23 22 22 21 21 22 24 26 27 26 24 21 18 16 15 14 14 14 15 15 13 13
64 65 65 65 65 65 65 65 65 65 64 64 63 63 62 62 60 60 59 58 57 56 54 53 53 52 53 56 51 44 47 50 51 49 45 42 44 46 47 46 46 45 45 45 44 44 42 40 38 37 36 35 35 34 32 30 28 27 28 27 27 27 27 25 24 24 24 23 23 23 22 23 24 25 25 24 22 20 19 17 16 16 14 14 15 14 13 12
68 68 68 68 68 68 68 68 68 68 67 67 66 65 65 64 63 62 61 61 59 58 57 55 55 54 55 59 53 48 49 52 53 51 45 44 45 48 49 48 48 48 47 47 46 46 45 43 41 40 40 39 37 35 34 32 31 30 30 30 30 29 28 26 27 26 25 24 25 24 23 24 24 24 24 22 21 21 20 18 17 16 14 14 13 12 12 11
72 72 72 72 72 72 72 71 71 71 71 70 69 68 67 67 66 65 64 63 62 60 59 58 58 57 58 61 57 53 52 53 55 52 49 49 47 49 51 50 49 50 49 49 48 48 46 45 44 43 42 40 39 38 37 34 34 34 33 34 33 31 29 28 28 27 26 26 25 24 24 24 24 24 24 22 22 21 20 19 18 16 14 13 11 10 10 9
77 77 77 76 76 76 76 75 75 75 74 74 73 72 71 70 69 68 68 67 65 63 62 61 61 60 61 63 61 58 55 55 56 54 54 53 50 50 52 52 51 51 51 50 49 49 48 48 47 45 44 42 42 41 38 37 38 39 38 37 35 33 31 30 30 28 27 27 26 25 24 24 24 25 24 23 23 21 20 19 18 16 13 12 10 9 10 9
81 81 82 82 81 81 81 80 79 79 79 78 77 76 75 73 72 72 72 71 69 68 66 65 64 63 64 65 64 63 60 56 56 57 57 57 54 52 53 54 53 52 51 50 51 51 50 50 48 47 45 45 45 43 42 43 44 43 41 39 37 35 32 32 31 30 29 28 27 26 26 25 24 25 25 25 24 21 20 18 17 15 13 11 9 9 10 10
82 83 84 85 85 85 86 85 84 84 84 83 82 81 79 78 76 75 75 75 74 72 70 68 66 65 67 68 69 68 64 59 58 59 60 60 58 55 54 55 55 53 52 52 53 53 52 51 48 47 48 49 49 48 48 48 46 44 42 40 38 36 34 33 32 32 31 30 29 29 28 26 25 26 27 26 24 22 20 18 17 16 14 12 10 10 11 11
81 82 84 85 86 86 88 88 88 88 88 88 87 86 84 83 81 79 79 79 79 77 74 73 70 69 71 72 72 70 67 63 61 61 62 62 61 58 56 56 56 54 53 55 55 54 53 50 48 50 53 53 52 51 50 49 47 45 43 41 39 37 37 35 33 34 33 33 32 31 29 28 26 26 28 27 25 23 21 18 17 17 15 14 12 12 11 11
82 83 84 86 87 86 87 88 88 89 90 91 91 90 89 87 86 85 83 83 85 82 79 77 75 72 75 78 75 72 70 66 64 64 65 65 64 61 58 57 57 56 57 59 57 55 52 49 51 56 56 55 53 52 51 50 48 46 44 42 40 40 39 36 35 36 36 35 34 32 31 30 27 28 29 28 27 25 22 19 18 17 16 15 14 13 12 11
82 83 85 87 88 88 88 89 88 88 89 90 91 91 91 90 89 89 87 87 91 89 84 82 80 77 79 82 79 74 71 69 68 68 68 67 66 63 62 61 59 60 63 61 57 54 50 51 58 60 58 56 54 53 52 52 50 48 46 43 42 42 41 38 37 37 37 37 36 34 34 32 29 29 29 29 28 27 24 22 21 20 18 17 16 15 13 12
81 82 84 86 88 88 89 90 90 90 90 90 91 91 91 91 90 90 89 89 94 95 90 87 85 83 82 85 84 77 73 73 72 72 72 70 68 67 66 64 63 65 65 60 57 55 52 58 64 61 57 57 55 54 53 53 51 49 47 44 45 45 43 41 40 39 39 40 39 38 36 34 30 29 29 29 29 29 27 25 24 22 21 19 18 16 15 14
78 80 82 84 87 88 88 89 90 90 91 92 92 92 92 91 90 90 90 90 93 96 94 91 89 88 87 88 88 81 76 77 77 76 75 73 72 72 70 68 68 67 65 61 60 58 58 65 64 58 58 58 56 54 53 52 51 50 48 47 48 48 45 44 43 42 41 42 41 39 37 34 32 30 30 30 30 30 29 28 26 24 23 22 20 18 16 15
74 76 78 81 84 87 87 89 90 90 90 91 92 93 93 93 93 91 91 92 94 94 94 94 91 91 90 90 90 86 81 81 81 81 80 77 76 75 74 73 71 68 67 66 64 61 64 67 63 59 59 58 56 55 53 53 53 51 50 49 51 50 48 46 45 44 42 42 42 40 38 36 35 33 32 32 31 31 31 30 28 27 25 25 22 20 18 17
74 75 76 77 80 84 86 87 90 91 91 91 92 92 93 93 94 94 93 94 96 94 93 94 93 92 91 90 91 90 86 84 86 87 84 82 81 80 80 77 73 71 71 71 68 65 67 69 64 61 61 59 58 56 55 55 54 52 52 53 54 51 50 49 48 46 43 43 44 43 41 39 38 36 34 33 31 31 32 31 30 29 28 27 24 22 20 18
75 76 76 76 78 81 84 85 87 90 91 92 93 92 93 93 93 93 93 95 97 96 94 94 94 94 92 91 90 91 90 89 90 91 89 88 87 85 83 80 77 75 76 75 71 66 69 71 66 63 63 62 60 57 57 57 55 55 57 57 56 53 53 52 51 48 46 46 47 45 43 41 39 37 36 34 32 31 32 32 32 32 31 28 26 24 22 20
76 77 77 78 78 79 82 84 85 87 89 92 93 93 94 94 94 93 92 94 96 96 96 96 96 96 96 94 91 91 92 92 94 95 95 94 92 90 87 84 81 81 81 79 72 69 74 74 69 68 68 64 61 61 63 61 57 60 62 60 58 56 56 56 53 51 50 49 47 46 45 42 40 40 38 36 33 31 32 34 35 34 32 30 28 26 24 22
76 76 78 79 79 79 80 82 84 86 87 89 91 92 93 94 94 94 93 94 94 94 95 96 98 99 99 98 95 92 92 94 96 98 97 96 95 93 90 89 87 86 85 81 76 76 79 78 75 73 70 66 65 67 67 63 60 64 65 62 61 59 58 58 55 53 52 49 47 47 46 42 41 42 40 37 35 33 34 37 38 36 34 32 30 29 27 25
74 75 77 79 81 81 81 81 83 85 86 86 87 89 91 92 93 94 94 94 93 93 94 95 98 99 101 100 98 95 94 95 98 98 96 96 96 95 94 93 92 90 87 83 80 80 81 82 79 74 70 68 69 71 69 65 64 67 66 64 63 61 60 59 56 55 52 47 46 47 47 45 43 43 41 38 38 38 38 40 40 39 37 35 33 31 29 27
73 74 76 78 80 81 82 82 82 84 85 85 85 86 86 88 90 92 93 93 93 93 94 95 95 97 100 100 99 98 97 98 100 100 98 96 96 96 95 95 94 90 88 86 82 82 84 84 79 74 73 73 73 73 71 67 67 68 67 65 63 62 62 60 58 56 50 46 46 47 48 47 44 44 44 42 43 42 42 42 41 41 40 38 35 32 31 28
72 73 74 75 77 78 79 81 82 83 84 84 84 84 83 84 85 87 89 90 91 93 94 95 95 96 98 98 97 99 99 101 103 102 100 98 96 94 94 94 93 90 88 85 84 85 86 85 81 79 78 76 75 74 73 70 69 69 68 66 65 63 62 60 57 53 48 46 47 49 50 49 46 46 47 46 46 46 44 43 42 42 42 39 35 33 32 29
73 74 74 74 75 75 75 77 79 80 82 82 83 82 82 82 82 83 84 86 87 89 91 93 95 97 98 96 96 98 100 101 103 104 102 100 98 96 95 94 94 92 88 87 88 88 87 86 84 82 79 77 76 76 74 72 70 70 69 67 65 63 61 58 55 52 48 48 51 53 52 49 47 50 51 49 49 49 46 43 41 41 42 41 37 34 32 30
73 74 75 74 74 72 72 74 75 76 78 79 80 80 81 81 81 81 81 81 83 84 87 89 92 96 98 96 96 98 99 100 102 104 105 104 102 100 99 98 97 95 92 92 92 91 90 89 85 80 79 79 79 78 76 75 73 72 70 69 67 64 60 58 58 56 53 54 57 57 53 48 49 54 55 51 50 50 47 42 40 40 41 42 39 35 32 31
73 73 73 73 72 70 68 69 70 71 73 74 76 76 77 78 79 80 79 78 79 81 82 84 87 92 95 96 97 98 99 99 100 102 105 106 105 104 102 101 101 100 99 98 96 93 92 90 85 84 84 83 81 79 79 79 76 74 74 72 67 63 62 62 62 60 59 59 60 57 52 50 54 58 58 53 50 51 47 41 39 38 40 41 40 37 34 32
70 68 67 67 68 66 65 65 66 67 68 69 71 72 73 74 75 76 76 77 78 78 79 80 82 87 92 93 96 99 99 99 99 100 103 106 107 106 105 104 105 105 103 99 95 93 91 88 87 88 88 85 82 81 82 80 77 76 75 70 65 64 66 66 64 63 61 59 57 56 53 54 58 59 57 53 50 48 44 39 37 36 37 38 39 39 35 33
67 63 61 60 61 61 61 61 62 62 63 65 66 68 69 70 71 72 72 73 76 76 76 77 78 83 88 90 94 97 98 100 100 100 101 104 106 106 107 107 107 106 102 97 93 92 89 86 87 88 85 83 83 83 84 81 78 76 73 68 68 71 70 67 65 63 60 56 55 55 54 56 58 56 54 52 48 45 42 39 36 34 35 35 38 41 37 35
61 59 57 56 55 55 55 56 58 59 60 62 62 63 64 65 66 68 68 69 72 73 73 73 75 80 84 88 92 94 96 99 101 102 102 103 104 105 106 108 109 108 104 98 94 93 88 84 86 86 82 81 83 85 85 82 78 74 71 70 72 72 68 65 63 60 57 54 54 56 57 57 55 54 53 51 47 45 42 40 37 35 34 33 36 42 40 37
57 54 53 52 51 50 51 52 53 55 56 58 59 59 60 60 61 63 64 65 67 68 68 69 72 76 81 86 89 91 94 98 100 103 104 102 103 104 106 107 108 108 106 100 97 95 89 87 88 86 82 83 86 87 83 78 75 73 73 73 72 68 66 65 63 59 57 56 56 59 58 54 52 54 55 50 47 46 43 40 38 36 35 34 36 42 43 40
55 50 48 47 47 47 48 49 50 51 52 53 54 56 58 58 56 57 58 60 62 64 64 64 67 72 77 82 86 89 93 97 100 103 104 103 102 103 105 106 106 107 107 104 100 97 92 89 89 88 86 88 89 85 77 72 71 71 71 70 69 67 66 66 63 61 59 57 59 60 56 52 54 57 54 49 46 45 42 41 39 37 37 36 37 44 47 45
55 50 46 45 46 46 47 48 48 48 48 48 49 51 54 57 55 53 54 56 58 59 60 60 63 68 72 77 83 88 92 97 100 102 103 103 102 103 105 105 104 105 106 105 102 99 95 90 89 91 91 91 87 79 74 72 71 71 70 68 68 67 67 66 62 57 56 55 57 58 54 54 57 55 51 47 45 43 42 41 38 37 38 38 41 46 50 49
56 52 46 43 45 46 47 48 49 47 46 46 46 46 49 53 53 51 53 53 53 54 55 56 59 64 68 73 79 85 91 95 99 101 102 103 103 103 105 105 104 103 104 104 103 101 98 93 91 92 93 90 83 77 77 76 75 75 74 72 72 70 69 66 60 56 56 57 58 57 55 55 56 52 49 47 44 43 43 41 38 38 38 40 44 48 52 51
54 54 49 44 44 45 45 46 47 47 44 43 43 43 45 49 48 49 52 52 50 50 51 52 55 60 64 69 74 81 87 92 95 99 102 103 103 103 104 104 103 102 102 103 102 101 99 96 93 93 91 88 84 81 81 80 80 80 79 76 74 71 68 65 62 62 63 62 61 59 56 56 55 51 49 48 45 44 43 41 40 40 40 43 47 50 52 52
52 54 53 49 46 46 46 45 45 46 44 42 40 40 42 43 44 46 49 50 48 48 47 48 52 56 60 65 71 76 82 87 92 96 100 103 102 102 103 103 102 101 101 101 100 100 99 97 96 95 93 90 88 87 86 84 84 83 80 75 71 69 68 67 66 66 65 64 62 59 57 58 56 52 51 49 47 44 43 44 43 42 42 45 48 50 52 53
50 51 52 50 47 46 46 45 44 44 44 42 39 38 38 38 39 42 45 47 46 46 45 45 49 52 56 61 67 72 77 82 88 94 98 101 102 101 101 101 101 101 100 100 98 98 98 98 97 97 96 93 91 89 88 87 85 82 77 72 69 68 69 69 67 65 62 62 61 57 56 58 56 53 52 51 47 45 46 47 46 43 42 44 47 49 51 53
49 49 50 50 49 46 45 44 44 42 41 39 37 36 36 35 35 37 41 44 44 43 43 44 46 49 53 57 63 68 73 78 84 90 96 98 100 101 101 100 100 101 101 99 97 96 97 96 96 98 98 94 90 88 88 88 85 80 75 72 70 70 71 71 68 63 62 63 61 58 58 59 56 53 52 50 47 46 48 48 46 43 41 43 46 48 50 52
50 49 47 47 48 47 46 44 43 40 37 35 33 32 32 32 32 33 37 40 40 39 41 43 45 47 50 53 59 64 69 75 80 87 92 95 98 100 101 99 99 101 100 98 95 94 94 95 96 97 97 93 90 88 87 86 83 80 77 75 73 73 73 72 67 63 64 65 62 60 61 60 57 53 51 49 47 48 49 48 44 42 41 42 45 47 48 51
50 50 47 45 45 44 44 44 43 40 35 32 30 29 29 29 29 31 33 35 36 36 38 41 43 45 47 50 55 60 66 71 77 83 88 93 95 98 100 99 99 100 100 97 94 92 92 94 94 94 94 92 91 90 88 84 81 80 79 78 76 75 73 70 66 64 65 65 64 64 63 61 59 55 52 50 48 49 49 46 44 42 42 42 44 46 48 50
50 50 49 47 45 42 41 40 40 39 36 32 29 28 26 25 26 28 29 31 32 33 36 38 40 43 45 47 52 57 62 68 73 78 85 90 93 97 99 99 99 99 98 97 94 91 91 92 91 91 91 91 92 92 89 85 80 79 79 79 78 76 73 71 69 68 67 66 67 67 65 64 62 57 54 52 50 49 48 46 44 44 43 43 44 45 48 50
51 50 49 48 45 42 39 37 37 36 35 32 28 26 24 23 23 24 25 27 29 31 34 36 37 40 43 46 50 54 59 65 70 75 82 88 92 96 98 99 99 99 98 96 93 91 91 91 90 90 90 91 92 92 89 86 82 79 79 79 78 77 75 74 73 71 69 69 69 69 67 66 64 59 56 54 52 49 47 46 45 44 43 44 45 47 49 49
49 49 48 46 43 40 37 35 34 33 32 30 27 25 23 21 21 21 21 24 27 28 31 34 35 38 42 45 49 53 57 63 68 72 79 86 91 94 96 97 97 98 97 96 94 92 91 90 89 89 90 91 91 90 89 87 83 80 79 79 78 77 76 75 74 72 71 72 71 70 69 67 65 61 57 54 52 49 47 46 46 45 45 45 45 46 47 47
47 47 46 44 41 39 37 35 33 32 30 28 26 24 22 20 20 19 18 20 24 25 28 32 34 37 40 44 47 51 55 61 65 70 77 85 89 91 93 94 96 96 97 96 94 93 92 90 89 89 90 90 89 88 89 87 84 82 81 81 81 78 75 75 75 74 74 74 73 71 70 69 66 62 58 55 52 49 46 46 47 47 46 44 44 44 45 44
Wind_Direction
259 260 259 258 257 258 259 260 261 262 262 262 262 261 262 262 262 262 262 260 257 254 250 247 245 244 242 239 239 240 237 235 235 235 232 226 217 214 215 218 222 225 226 226 226 227 227 228 229 230 232 232 233 234 235 237 239 240 241 243 244 246 247 249 249 249 248 245 243 240 241 242 238 240 240 246 267 279 281 286 291 291 292 296 300 300 299 297
260 261 261 260 258 258 258 259 260 261 262 262 262 262 262 262 262 261 261 261 259 256 252 249 247 246 245 242 238 238 238 237 234 234 234 229 224 221 216 214 217 222 225 228 229 229 230 230 230 231 233 234 235 236 237 238 239 241 242 244 244 245 247 247 248 248 248 247 247 244 243 245 244 248 250 254 268 277 280 286 290 292 294 296 299 299 298 297
261 262 262 261 258 258 259 259 260 261 261 261 261 261 261 262 262 261 260 259 259 258 254 251 249 247 246 245 242 238 237 239 237 233 232 231 229 227 220 215 215 217 221 225 228 230 231 232 232 233 234 235 236 237 238 239 240 242 243 245 245 246 247 247 247 247 248 248 249 249 248 249 251 256 258 260 269 278 283 286 288 292 293 293 295 296 297 298
262 263 263 261 259 258 259 260 261 261 262 261 261 261 261 261 261 261 260 258 257 258 256 253 251 250 248 246 245 241 237 239 239 234 232 233 233 232 226 220 217 217 217 220 224 228 231 232 233 234 236 236 237 239 239 240 241 243 244 245 246 247 248 248 248 247 248 250 251 251 252 254 258 262 264 266 272 280 285 285 288 293 292 292 293 294 296 297
262 263 262 261 259 259 259 260 261 262 262 262 261 261 261 261 261 261 260 258 256 256 256 253 252 251 250 248 246 244 239 239 240 235 234 235 234 234 231 225 220 219 218 217 220 224 228 231 233 234 236 237 238 239 240 241 242 243 244 245 246 247 248 248 248 248 248 249 252 253 254 257 261 265 269 270 274 279 283 285 290 293 292 291 290 292 296 297
263 262 261 260 260 260 260 260 261 262 262 262 261 261 261 261 262 262 261 260 257 255 255 254 252 251 251 250 248 245 241 242 242 236 236 238 234 233 233 230 225 221 220 218 218 221 224 228 231 233 235 236 237 238 240 241 242 243 244 245 246 246 246 247 247 247 248 249 252 254 256 259 262 266 270 272 274 276 281 289 293 290 289 289 289 294 299 299
262 262 261 261 261 261 261 261 261 261 262 262 261 261 261 261 261 261 261 261 259 256 255 254 253 251 251 251 250 247 243 244 243 238 237 238 236 234 233 232 229 225 222 221 222 220 221 224 226 231 235 236 237 238 239 240 240 241 242 244 245 246 246 247 247 248 249 250 253 255 258 260 262 265 269 271 271 274 283 291 293 290 289 290 293 297 299 300
262 262 261 261 261 261 261 262 262 262 262 261 261 260 260 260 260 261 261 261 260 259 256 255 254 253 252 251 250 248 246 246 244 242 240 237 237 236 233 233 232 229 225 223 224 223 222 221 221 226 232 235 239 240 239 239 239 240 242 243 244 246 247 247 248 249 250 251 253 256 258 260 261 264 267 267 267 274 286 291 292 291 290 293 296 298 299 301
262 262 262 262 262 262 262 262 262 262 262 261 261 260 259 259 259 260 260 260 259 259 258 257 255 254 253 251 249 247 248 248 244 244 242 238 237 238 235 234 233 231 229 226 225 225 224 221 220 224 229 234 237 240 239 239 240 240 241 243 245 246 247 248 249 249 250 250 251 253 256 257 259 260 260 259 262 274 286 290 290 288 289 294 298 300 303 305
262 262 262 262 262 262 262 262 261 261 261 261 260 260 259 259 258 258 259 259 259 258 258 258 256 255 253 252 250 247 250 250 245 243 244 241 238 239 236 235 234 233 231 229 227 226 226 224 223 225 227 230 232 236 238 238 240 241 241 242 243 245 246 247 247 247 247 248 249 249 253 255 254 254 253 253 259 271 282 287 287 286 289 295 300 304 306 308
263 263 263 263 262 262 262 261 261 261 260 260 260 259 258 258 258 257 257 258 258 257 258 258 257 256 254 253 251 248 250 250 246 243 244 243 240 239 238 235 234 234 233 231 229 228 227 226 225 226 227 229 230 234 236 234 237 241 243 242 242 244 245 245 244 244 245 247 248 248 250 252 250 249 248 250 258 267 275 281 282 282 287 293 299 303 305 311
264 264 264 263 263 263 262 262 261 261 260 260 259 259 258 258 257 257 256 256 256 256 256 256 256 256 255 253 251 249 250 250 248 244 243 243 242 240 239 237 235 235 234 234 232 229 228 227 227 227 228 230 232 234 233 231 233 239 242 243 242 243 244 244 245 245 245 245 247 248 249 251 250 248 247 250 259 266 271 276 278 277 279 286 293 298 302 312
265 265 264 264 264 263 263 262 262 261 260 260 259 259 258 257 257 257 256 256 255 255 255 254 254 254 254 253 251 249 251 250 249 245 241 242 243 241 239 238 236 235 235 234 234 232 229 228 229 228 229 231 233 234 234 232 232 236 240 241 242 243 243 243 244 245 245 245 245 245 246 248 248 247 248 253 260 265 268 272 274 273 274 280 290 297 302 312
266 265 265 264 264 263 263 263 262 261 260 260 259 259 258 257 257 256 256 255 255 255 254 253 253 252 253 253 250 249 250 250 249 246 242 241 243 243 240 237 237 236 235 235 235 234 232 230 230 230 229 231 232 234 235 234 234 236 239 240 241 243 243 243 244 244 245 245 246 245 246 248 249 250 252 256 260 263 265 268 270 271 273 280 287 295 303 312
267 266 265 265 264 264 263 263 262 262 261 260 259 259 258 258 257 256 255 255 255 254 254 253 252 251 252 253 250 248 249 250 250 249 245 242 240 241 240 237 236 236 235 235 234 234 233 231 230 230 231 231 232 234 235 235 236 237 239 240 240 242 243 244 245 245 245 245 246 247 247 249 253 255 258 258 259 261 264 265 268 272 276 280 286 296 306 310
267 266 265 265 264 264 263 263 262 262 261 261 260 259 258 258 257 256 255 254 254 253 253 253 252 251 252 252 250 248 248 249 250 250 247 242 237 239 241 238 236 235 234 234 235 234 234 233 232 231 232 232 232 233 233 235 237 237 237 238 239 240 242 245 247 248 248 247 248 248 248 251 254 258 260 259 260 263 263 264 269 275 278 280 286 300 304 303
267 266 266 265 264 264 263 262 262 262 261 261 260 259 258 258 257 257 256 255 253 252 251 252 252 252 252 252 251 249 246 246 249 249 247 245 239 236 239 239 236 235 234 234 235 235 234 234 233 232 232 233 233 233 233 234 235 234 234 236 237 239 240 244 247 249 250 251 250 250 250 252 254 257 259 260 261 263 263 266 272 276 279 279 285 295 295 298
267 266 265 265 264 263 263 262 261 261 261 260 260 259 258 257 257 257 256 255 254 252 251 250 250 250 251 251 251 249 246 244 246 248 247 245 241 236 236 238 237 235 234 234 235 235 235 235 233 233 233 233 234 233 231 232 233 233 234 235 237 238 240 243 246 248 250 252 253 252 252 252 253 256 258 259 261 262 263 267 271 274 275 272 275 286 291 299
268 267 266 265 264 263 262 262 261 261 260 260 259 258 258 257 256 256 256 256 255 253 251 250 249 249 250 250 249 249 247 244 243 245 246 245 243 239 235 236 237 236 235 234 234 234 234 235 235 235 234 233 232 232 232 233 234 235 236 237 238 240 241 243 247 249 250 252 253 253 253 253 253 255 258 260 261 262 264 265 266 269 268 263 266 280 289 297
269 269 268 267 265 264 263 262 261 260 260 259 258 258 257 257 256 255 255 255 255 253 252 250 249 248 249 248 247 247 247 245 243 242 244 245 244 242 238 236 236 236 235 235 233 232 233 234 236 237 235 233 232 233 235 236 236 237 238 239 240 241 242 243 246 248 248 249 250 251 252 253 253 255 259 262 263 263 264 264 264 264 263 262 267 275 284 290
269 268 268 267 266 265 264 263 262 261 260 259 258 258 257 256 255 255 254 254 254 252 251 251 249 248 248 248 247 246 246 245 244 243 242 243 243 243 240 237 236 235 235 234 233 232 232 233 237 238 236 234 233 233 235 236 236 237 238 239 240 242 243 242 245 248 249 249 249 250 251 251 251 253 256 261 263 264 263 261 261 262 261 261 265 270 275 279
270 268 267 267 266 265 264 264 263 262 261 260 259 258 257 256 255 254 253 254 254 252 250 250 249 248 248 249 248 245 246 246 245 244 243 242 242 242 241 239 236 235 235 234 233 233 232 234 236 235 235 234 234 234 234 235 236 237 238 239 240 242 242 242 243 246 248 248 248 247 247 247 248 251 255 259 262 263 262 260 259 259 259 256 258 264 267 270
272 271 269 268 267 265 264 263 262 262 261 260 259 259 258 256 255 254 253 252 254 253 250 248 248 248 247 249 249 246 246 246 245 245 245 243 242 241 240 239 237 236 236 234 234 232 232 235 235 233 234 235 234 235 235 236 236 237 238 239 240 240 240 239 240 242 244 246 245 244 245 245 245 250 254 257 260 262 262 262 260 259 258 254 253 259 261 263
276 274 272 270 268 266 265 264 262 261 260 259 259 258 257 256 255 254 253 252 252 253 252 249 247 247 247 248 249 248 245 246 246 245 245 244 243 242 241 240 238 238 237 235 233 231 232 236 236 233 235 235 235 236 236 238 238 237 237 239 240 240 238 238 238 239 241 245 246 246 247 247 246 246 249 253 256 260 261 262 262 261 260 259 258 257 257 259
280 277 274 272 270 268 266 264 263 261 260 259 258 257 256 255 255 253 253 252 251 251 252 251 248 246 246 246 248 247 245 246 246 245 244 243 242 242 241 240 239 239 239 236 233 231 233 237 236 234 235 235 235 236 237 238 238 238 238 239 240 239 238 238 238 239 241 245 247 248 248 248 246 244 244 248 251 256 260 261 263 263 261 262 262 259 256 257
283 280 277 274 272 270 267 265 263 262 260 258 257 256 255 254 253 252 251 251 251 250 250 251 250 248 246 245 246 246 245 244 245 244 244 243 242 241 241 240 239 238 238 237 234 232 234 237 235 235 236 236 235 235 236 237 237 238 238 238 238 239 239 239 238 239 240 242 245 246 246 246 247 247 245 246 248 253 258 261 262 262 261 263 263 260 258 255
286 282 279 276 274 272 269 267 264 263 261 259 257 256 255 253 252 251 250 250 250 249 248 248 249 248 246 245 244 244 243 242 242 243 242 241 240 240 240 240 239 238 238 237 235 234 237 237 235 234 235 235 235 235 235 235 236 238 237 237 238 238 239 239 238 238 238 240 242 245 246 247 249 249 248 247 247 250 256 259 260 259 259 262 262 260 257 254
286 284 281 279 276 273 271 269 266 264 262 260 258 256 254 253 252 250 249 248 248 248 247 247 246 247 246 245 242 241 241 241 241 241 240 239 239 238 238 238 238 237 237 236 235 234 236 236 234 232 233 233 234 234 234 233 234 237 237 237 237 237 238 239 239 239 238 240 243 246 247 248 250 250 249 248 248 248 252 255 257 257 258 259 259 257 255 251
286 284 282 280 278 275 272 270 269 266 263 261 259 258 255 253 252 250 249 248 247 246 246 245 245 245 244 244 242 241 240 241 241 241 240 240 240 239 238 237 236 236 236 235 234 234 236 236 234 232 232 233 234 234 233 232 233 236 236 236 236 237 238 239 239 240 240 241 244 247 248 248 248 249 249 250 249 248 248 250 252 253 255 255 255 254 252 248
286 284 282 280 278 276 274 272 270 269 267 264 262 259 258 256 254 252 250 248 247 246 245 244 244 243 243 242 242 240 240 240 241 241 240 240 240 240 238 237 236 235 236 235 234 234 236 237 235 233 233 233 234 235 235 233 233 236 236 236 237 237 238 239 239 240 241 242 244 247 248 246 245 248 249 248 249 247 246 247 249 250 250 250 250 251 251 249
287 285 282 280 279 277 276 274 272 271 270 268 265 263 260 258 255 254 251 249 247 246 244 244 243 243 242 241 240 240 239 239 240 240 240 239 240 240 240 239 237 236 236 236 235 235 237 237 237 236 235 234 234 235 235 234 235 237 238 238 238 238 239 239 240 241 242 243 245 245 246 245 244 246 247 245 245 245 245 247 248 250 250 249 248 249 249 248
291 288 286 283 280 278 276 275 273 272 270 269 268 266 263 260 257 255 252 250 248 246 244 244 243 242 241 240 239 238 237 237 239 239 239 238 238 239 240 240 239 237 236 236 236 236 237 238 237 235 234 234 235 236 236 235 236 238 238 239 239 240 241 242 242 243 243 243 243 242 243 244 243 243 244 244 244 244 244 246 248 251 253 252 249 247 248 246
295 292 289 286 283 280 278 275 273 272 270 269 268 266 265 262 259 256 253 250 248 245 244 243 242 242 241 239 238 237 236 235 236 238 238 237 236 236 237 238 238 237 234 233 233 233 234 235 235 234 234 235 235 235 236 236 236 238 239 240 240 241 242 243 244 243 241 240 240 239 239 241 243 244 243 242 244 245 244 244 247 250 254 255 251 247 246 244
298 295 292 289 286 283 280 277 275 272 270 269 267 266 264 263 261 258 255 252 249 245 243 241 241 241 240 238 237 236 235 234 233 235 236 236 234 234 233 234 235 235 233 231 231 230 231 232 232 233 233 234 234 234 235 234 234 235 237 237 237 238 239 239 239 238 235 234 235 236 236 238 241 243 243 241 242 245 245 244 244 247 251 254 253 248 243 240
300 297 294 292 289 286 283 279 277 274 272 269 267 265 263 262 261 259 256 254 250 246 243 239 238 239 239 238 236 235 235 234 232 232 233 234 233 232 232 232 232 232 231 230 229 229 229 230 230 229 229 229 230 231 232 232 232 233 234 234 235 236 236 237 237 236 234 233 235 236 236 237 238 241 243 242 242 245 248 246 245 246 249 252 254 250 243 237
301 298 295 292 290 287 285 281 278 275 273 271 269 266 264 262 260 258 256 254 252 248 244 239 237 237 237 235 235 235 234 234 232 231 231 232 233 232 231 231 232 232 232 231 229 228 228 227 227 228 227 227 227 228 230 230 230 231 232 233 233 233 233 234 234 234 234 234 236 238 237 236 238 241 244 246 245 247 250 249 247 247 249 251 254 252 245 236
303 300 296 293 290 288 286 283 280 277 274 271 268 266 265 263 260 258 256 254 252 249 245 241 237 235 235 233 232 233 233 233 232 231 230 230 231 231 230 231 231 233 233 232 231 231 229 228 229 229 229 229 228 228 228 228 228 229 230 230 230 231 231 231 232 233 234 234 236 238 237 236 239 242 245 247 247 247 248 247 245 244 245 248 251 251 245 235
304 302 299 295 292 290 287 284 282 279 276 273 270 267 265 263 261 259 256 253 251 249 245 241 238 235 233 232 230 229 230 231 231 230 229 228 229 230 230 229 230 231 231 230 229 231 230 230 231 232 231 231 231 230 230 229 228 228 228 228 229 230 231 232 233 234 234 234 235 236 236 236 239 241 243 244 245 244 243 243 242 239 239 240 244 247 243 235
306 304 301 298 296 293 289 285 282 280 278 276 274 272 268 264 261 259 257 254 252 249 246 242 238 235 232 230 229 227 227 228 229 229 228 226 226 228 229 228 228 229 230 229 227 228 227 227 230 231 230 230 231 231 231 231 230 230 229 229 230 230 231 231 231 231 231 231 232 235 236 237 239 240 241 240 241 242 241 241 240 237 234 232 236 241 240 235
309 306 304 301 299 296 292 287 284 281 279 277 276 274 272 269 265 260 257 254 252 250 246 242 238 236 232 229 227 226 225 225 226 227 227 225 224 226 227 227 227 227 228 227 227 226 225 224 227 228 227 228 229 230 231 231 231 232 232 233 232 232 232 232 231 231 232 231 232 235 236 236 237 239 239 239 239 240 240 238 238 236 233 229 229 234 236 233
312 310 309 307 305 301 297 294 290 287 284 281 277 274 272 271 268 265 260 256 252 249 246 242 238 235 232 229 226 224 223 223 224 225 226 225 223 223 225 226 226 226 226 225 225 226 225 222 224 227 228 228 229 229 227 226 227 229 230 230 230 230 230 231 231 231 233 234 235 237 236 236 237 239 239 239 238 238 238 236 235 234 233 229 226 228 232 233
316 313 312 312 309 305 302 299 295 292 289 286 281 277 272 270 269 267 263 259 254 250 245 241 237 234 232 229 226 224 223 222 222 223 224 224 222 221 222 224 224 224 225 224 223 223 224 221 221 225 227 229 229 227 226 224 223 224 224 224 224 225 226 228 228 228 230 231 233 235 235 236 239 240 240 239 237 237 237 234 232 230 229 227 225 226 231 233
319 316 314 314 311 307 305 302 299 296 293 288 284 280 275 271 269 266 264 261 257 252 246 241 237 233 231 229 226 223 222 221 221 221 222 223 222 220 220 222 223 223 223 223 222 221 222 220 219 222 225 227 226 225 225 225 224 224 223 222 222 223 224 225 224 225 226 228 229 230 231 234 236 237 238 238 236 236 236 235 232 228 224 224 224 225 229 232
322 319 317 318 316 312 310 307 305 302 298 293 287 282 277 273 270 266 263 262 259 255 248 242 237 233 230 228 226 224 222 220 220 220 220 221 221 220 219 219 221 222 222 222 221 220 220 219 219 220 222 223 223 222 223 225 226 226 225 223 222 223 225 225 224 225 227 228 230 230 230 232 233 233 234 235 234 233 234 233 232 227 223 222 224 225 227 231
323 321 321 320 318 316 313 311 308 306 303 298 292 285 280 275 270 266 264 262 259 255 250 244 238 233 229 227 225 224 221 219 218 219 219 220 220 219 218 217 218 220 221 220 220 219 219 218 218 220 221 220 221 221 221 223 225 226 226 226 224 224 226 227 227 228 229 231 233 232 233 234 233 232 233 234 233 232 233 232 231 228 224 223 224 225 226 230
326 325 325 323 321 318 316 312 310 308 305 300 295 289 283 278 271 266 263 261 258 255 250 245 240 235 230 227 225 223 221 219 218 218 218 218 218 218 217 215 215 217 219 219 218 217 218 217 217 219 221 220 221 221 222 224 225 225 225 226 225 225 226 227 227 227 229 232 233 233 233 234 233 232 233 234 234 234 234 234 232 230 227 225 226 226 226 228
328 327 327 326 324 321 318 314 312 310 306 301 296 290 285 279 273 266 262 259 257 254 249 244 240 236 230 227 224 222 220 219 217 217 217 217 216 217 217 214 213 215 217 217 216 216 216 216 216 218 220 220 221 221 222 223 224 224 224 224 224 225 226 228 228 227 228 231 232 232 233 234 233 232 232 233 234 236 237 235 234 232 229 227 227 228 227 228
331 329 329 329 327 324 321 317 315 314 310 305 299 293 286 279 273 267 263 259 256 252 247 242 238 235 231 227 224 221 220 219 216 215 216 216 215 215 216 214 212 213 215 215 215 214 214 215 216 217 218 219 220 221 222 222 223 224 224 224 224 225 226 228 229 228 228 230 231 231 232 233 232 230 230 232 233 235 237 236 234 232 230 228 227 228 227 227
333 332 333 332 330 328 324 320 318 317 315 310 303 296 289 282 275 269 264 261 256 250 245 239 235 233 230 226 224 221 218 218 216 215 215 215 214 214 214 213 211 211 212 213 213 212 213 214 214 215 216 217 218 220 221 220 220 222 224 225 225 225 225 227 228 228 228 229 231 231 231 231 231 229 228 229 231 233 235 235 233 231 230 228 227 227 228 227
335 335 336 335 333 331 329 325 322 319 316 313 308 301 294 286 279 272 266 262 255 248 243 238 231 229 227 223 222 220 217 216 215 213 213 214 214 213 213 211 210 209 210 211 211 210 211 212 212 213 214 215 217 218 219 219 218 220 223 224 225 225 224 225 226 227 226 227 229 231 231 231 231 228 226 227 229 230 232 234 233 231 229 228 227 227 228 228
338 338 338 337 335 334 333 330 326 322 319 315 312 307 301 294 285 277 269 263 256 247 241 237 229 225 223 221 219 218 215 214 213 212 212 213 214 213 212 210 209 207 207 208 209 209 209 209 209 211 213 214 215 216 218 218 217 217 221 223 223 223 223 223 224 224 225 225 227 228 230 230 230 228 226 225 227 228 230 232 232 230 228 227 226 227 228 228
341 341 341 340 339 339 338 336 332 328 325 322 317 312 307 301 293 284 274 266 259 248 239 234 230 224 221 219 217 216 213 212 211 210 210 212 213 213 212 209 207 206 206 206 206 207 207 207 207 209 212 213 213 215 216 217 215 216 219 222 223 222 221 222 222 222 222 224 225 226 227 228 228 227 225 223 224 226 227 229 230 229 227 226 226 227 229 228